Regional Weather Roundup
Issued by NWS Albany, NY

Home | Current Version | Previous Version | Text Only | Print | Product List | Glossary On
Versions: 1 2 3 4 5 6 7 8 9 10 11 12 13 14 15 16 17 18 19 20 21 22 23 24 25 26 27 28 29 30 31 32 33 34 35 36 37 38 39 40 41 42 43 44 45 46 47 48 49 50
000
ASUS41 KALY 290510
RWRALY

NEW YORK STATE HOURLY WEATHER ROUNDUP
NATIONAL WEATHER SERVICE ALBANY NY
1200 AM EST MON DEC 29 2014

NOTE: "FAIR" INDICATES FEW OR NO CLOUDS BELOW 12,000 FEET WITH NO
SIGNIFICANT WEATHER AND/OR NO OBSTRUCTIONS TO VISIBILITY.

NYZ032-033-038>043-046>054-057>066-NYZ062>081-290600-
EAST


CITY           SKY/WX    TMP DP  RH WIND       PRES   REMARKS
ALBANY         MOCLDY    35  26  69 NW6       30.06S WCI  30
GLENS FALLS    MOCLDY    32  21  64 SW6       30.04R WCI  26
POUGHKEEPSIE   CLOUDY    39  27  62 NE5       30.07R
NEWBURGH       PTCLDY    37  27  65 W9        30.07R WCI  31
MONTGOMERY     CLOUDY    38  24  57 NW8       30.06R WCI  32
WHITE PLAINS   CLOUDY    39  28  64 NW9       30.04R WCI  33
ISLIP          MOCLDY    43  30  60 NW12      30.03R
NEW YORK CITY  CLOUDY    42  28  57 NW15G22   30.07R
CENTRAL PARK   CLOUDY    43  26  51 VRB7      30.10R
$$

NYZ005>009-017-018-044>046-055-056-290600-
CENTRAL


CITY           SKY/WX    TMP DP  RH WIND       PRES   REMARKS
FULTON         CLOUDY    34  27  75 SW6       30.08R WCI  29
SYRACUSE       FLURRIES  34  26  72 W12       30.08R WCI  25
ROME           CLOUDY    34  26  72 W6        30.08R WCI  29
ELMIRA         CLOUDY    32  27  81 CALM      30.09R
BINGHAMTON     MOCLDY    27  23  85 W8        30.04S WCI  19
MONTICELLO     MOCLDY    30  25  80 W6        30.06R WCI  24
$$

NYZ026>034-041>043-290600-
NORTH


CITY           SKY/WX    TMP DP  RH WIND       PRES   REMARKS
WATERTOWN      PTCLDY    34  22  61 W8        30.05S WCI  27
FORT DRUM      NOT AVBL
MASSENA        MOCLDY    32  21  64 W6        30.01R WCI  26
SARANAC LAKE   CLOUDY    27  21  78 SW9       29.93R WCI  18
PLATTSBURGH    CLOUDY    30  22  72 CALM      29.98F
$$

NYZ001>004-010>016-019>021-290600-
WEST


CITY           SKY/WX    TMP DP  RH WIND       PRES   REMARKS
NIAGARA FALLS  CLEAR     26  21  81 SW6       30.12S WCI  19
BUFFALO        CLEAR     30  22  72 W7        30.12R WCI  23
DUNKIRK        MOCLDY    33  23  66 NW9       30.15S WCI  25
JAMESTOWN      PTCLDY    28  19  69 NW10      30.10S WCI  19
WELLSVILLE     CLOUDY    30  23  75 NW9       30.06S WCI  22
ROCHESTER      PTCLDY    30  22  72 W7        30.11S WCI  23
PENN YAN       CLOUDY    34  23  64 W7G20     30.10R WCI  28
$$

             KEY
       WCI = WIND CHILL INDEX
       VSB = VISIBILITY
       HX  = HEAT INDEX
$$



USA.gov is the U.S. government's official web portal to all federal, state and local government web resources and services.